THORAD AGENA D DEB, 4752

Orbit data source: Space-Track

THORAD AGENA D DEB, 4752 is space debris in SSO originally from a launch on Wed, 08 Apr 1970 UTC launched from the Air Force Western Test Range (AFWTR). Debris objects in space refer to the collection of defunct objects orbiting the Earth. Examples of debris include non-operational satellites, rocket bodies, and fragments generated from explosions, collisions, or faulty payload assembly.

Loading next visibility...
Identifier
4752, 1970-025DA
Orbit
SSO
Country
Flag of USUS
Related business
Manufacturer
Unknown
Mission
Spacecraft
Bus & Motor
Unknown
Mass
Unknown
Launch date (UTC)
1970-04-08 (56 years ago)
Launch vehicle
Unknown
Launch site
Air Force Western Test Range (AFWTR)
Object type
Payload
Rocket body
Debris
Shape & HBR
Unknown shape, 0.2 m
Radar Cross Section
Small (<0.1 m²)

Expand to show TLE details & history
Last TLE update: 14 hours ago

TLE from 14 hours ago
0 THORAD AGENA D DEB
1  4752U 70025DA  26123.88734916  .00005036  00000-0  25250-2 0  9992
2  4752  99.8814 264.9770 0021910 202.7520 157.2681 14.17000138827805
Epoch: 2026-05-03T21:17Z
TLE epoch observation values (Epoch: 2026-05-03T21:17:46.967Z)
Latitude
-0.00009°
Longitude
83.74687°
Altitude
852.972 km
Speed
7.419 km/s
True Right ascension
17h 39m 54s
True Declination
0° 00' 00"
Sunlit
Object was in full shadow at epoch
Visualization orbit readout
Latitude
Unknown
Longitude
Unknown
Altitude
Unknown
Speed
Unknown
Apparent Right ascension
Unknown
Apparent Declination
Unknown
Sunlit
N/A
Visualization observer readout
Local Sidereal Time
18:44:29
Azimuth
Unknown
Elevation
Unknown
Doppler factor
Unknown
Orbital elements
Apogee altitude
848.537 km
Perigee altitude
816.939 km
Semi-major axis
7,210.875 km
Eccentricity
0.00219
Inclination
99.8814°
RAAN
264.977°
Arg. of periapsis
202.752°
True anomaly
157.36487°
Mean anomaly
157.2681°
Eccentric anomaly
157.31651°
Mean motion
3.54455 °/min
Orbital period
101.56 mins
BSTAR
0.002525
Loading maneuver chart data...
Computing Atmospheric mass density...

Documentation

Showing up to 5 results
|